Location: Arroyo Grande
(40.2671°N, 4.2512°W)
Time: 23:14:13
(UTC+00:00)

Cosmos 2278 Rocket - Pass Details

Date: 28 September 2023
Orbit: 842 x 844 km, 71.0° (Epoch: 03 December)

Event Time Altitude Azimuth Distance (km) Brightness Sun altitude
Rises 21:42:14 0° 318° (NW) 3,408 6.2 -39.7°
Reaches altitude 10° 21:45:36 10° 298° (WNW) 2,467 5.3 -40.2°
Enters shadow 21:48:15 16° 270° (W) 2,072 4.6 -40.6°
